{"data":{"norad_id":68743,"intl_designator":"2026-082R","name":"STARLINK-37354","alt_names":[],"object_type":"PAYLOAD","status":"ACTIVE","operator":null,"country":"US","launch_date":"2026-04-15","launch_site_code":"AFWTR","launch_vehicle":null,"mission":null,"orbit_class":"UNKNOWN","rcs_meters":null,"size_class":null,"mass_kg":null,"dimensions":null,"purposes":["comms"],"wikipedia_slug":null,"has_3d_model":false,"image_url":null,"decayed_at":null,"tle_current":{"epoch":"2026-05-25T04:00:03.998880Z","epoch_age_seconds":71228,"freshness":"FRESH","line1":"1 68743U 26082R   26145.16671295 -.01858136  00000+0 -32652-1 0  9993","line2":"2 68743  97.2858   8.8873 0001784 110.7763 224.9745 15.53875819  6009","mean_motion":15.53875819,"eccentricity":0.0001784,"inclination_deg":97.2858,"raan_deg":8.8873,"arg_perigee_deg":110.7763,"mean_anomaly_deg":224.9745,"bstar":-0.032652,"rev_number":600,"period_min":92.671498094791,"perigee_km":404.21226778883,"apogee_km":406.6326418023,"semimajor_km":6783.5594547956,"source":"CELESTRAK","updated_at":"2026-05-25T13:38:22.029033Z"}}}